Timestamp[UTC];2m Lufttemperatur [degC] (tas);Stations-Luftdruck [Pa] (ps);relative Luftfeuchtigkeit [%] (hurs);spezifische Luftfeuchtigkeit [kg/kg] (huss);Niederschlagsmenge [mm] (pr);Windgeschwindigkeit in 2m [m/s] (sfcWind);Windrichtung [deg];maximale Windgeschwindigkeit [m/s] (wsgsmax);u-Windkomponente [m/s] (uas);v-Windkomponente [m/s] (vas);Sonneneinstrahlung [W/m2];Blitzrate [n];Blitzentfernung [km];Bodenfeuchte in 5cm Tiefe [vol%];Bodenfeuchte in 15cm Tiefe [vol%];Bodenfeuchte in 30cm Tiefe [vol%];Bodenfeuchte in 60cm Tiefe [vol%];Bodentemperatur in 5cm Tiefe [degC];Bodentemperatur in 15cm Tiefe [degC];Bodentemperatur in 30cm Tiefe [degC];Bodentemperatur in 60cm Tiefe [degC];Matrixpotential in 30cm Tiefe [kPa];Bodenfeuchte aus CRNS [vol%] (mrso);Neutronen Anzahl [N/h]
2023-07-01 00:00:00;16,4;98950;63;0,0074;0,0;2,4;182;4,2;-0,09;-2,45;0;0;nan;10,9;14,7;14,7;25,8;18,2;19,4;19,8;18,5;-7947,2;18,6;1756
2023-07-01 01:00:00;nan;nan;nan;nan;0,0;nan;nan;nan;nan;nan;nan;0;nan;10,9;14,6;14,7;25,8;17,9;19,2;19,7;18,5;-9990,0;18,6;1755
2023-07-01 02:00:00;17,1;98816;59;0,0073;0,0;2,0;202;3,4;-0,74;-1,82;0;0;nan;10,9;14,7;14,7;25,7;17,8;19,0;19,6;18,5;-9990,0;18,5;1758
2023-07-01 03:00:00;15,8;98770;68;0,0077;0,0;1,5;161;1,9;0,47;-1,36;2;0;nan;11,0;14,6;14,7;25,7;17,6;18,8;19,5;18,5;-9990,0;18,7;1753
2023-07-01 04:00:00;15,8;98725;68;0,0077;0,0;1,5;153;2,6;0,68;-1,31;18;0;nan;11,0;14,6;14,7;25,7;17,5;18,6;19,4;18,5;-9990,0;18,6;1756
2023-07-01 05:00:00;16,6;98654;66;0,0078;0,0;1,7;160;2,4;0,56;-1,52;55;0;nan;11,0;14,6;14,7;25,7;17,5;18,5;19,3;18,5;-9990,0;18,6;1756
2023-07-01 06:00:00;17,0;98645;65;0,0079;0,0;1,4;194;2,5;-0,32;-1,28;62;0;nan;11,0;14,6;14,7;25,7;17,5;18,4;19,2;18,5;-9990,0;19,0;1744
2023-07-01 07:00:00;nan;nan;nan;nan;0,0;nan;nan;nan;nan;nan;nan;0;nan;11,0;14,6;14,7;25,7;17,6;18,4;19,3;18,5;-9990,0;19,2;1740
2023-07-01 08:00:00;nan;nan;nan;nan;0,0;nan;nan;nan;nan;nan;nan;0;nan;11,0;14,6;14,7;25,7;17,9;18,4;19,3;18,5;-9990,0;19,6;1729
2023-07-01 09:00:00;16,8;98613;85;0,0103;0,0;3,2;199;5,4;-1,05;-3,06;333;0;nan;11,0;14,7;14,7;25,7;18,2;18,5;19,3;18,5;-9990,0;19,2;1739
2023-07-01 10:00:00;16,8;98586;84;0,0102;0,36;3,2;204;5,5;-1,25;-2,82;239;0;nan;11,1;14,7;14,7;25,7;18,5;18,6;19,3;18,5;-9990,0;19,4;1734
2023-07-01 11:00:00;18,0;98560;82;0,0108;0,0;3,4;195;5,4;-0,89;-3,3;260;0;nan;11,1;14,7;14,7;25,7;18,8;18,8;19,4;18,5;-9990,0;18,9;1747
2023-07-01 12:00:00;19,3;98530;77;0,0109;0,0;2,8;208;4,7;-1,29;-2,39;149;0;nan;11,1;14,7;14,7;25,7;19,1;19,0;19,4;18,5;-9990,0;19,6;1728
2023-07-01 13:00:00;20,0;98523;73;0,0109;0,0;4,2;202;6,4;-1,58;-3,88;262;0;nan;11,1;14,7;14,7;25,6;19,3;19,2;19,4;18,5;-9990,0;19,7;1726
2023-07-01 14:00:00;19,3;98528;79;0,0112;0,42;3,7;229;6,1;-2,51;-2,18;220;0;nan;11,2;14,7;14,7;25,6;19,6;19,3;19,6;18,5;-9990,0;19,6;1730
2023-07-01 15:00:00;19,6;98493;84;0,0122;0,07;2,2;212;3,9;-1,12;-1,77;232;0;nan;11,2;14,7;14,7;25,6;19,8;19,5;19,5;18,4;-9990,0;19,7;1727
2023-07-01 16:00:00;20,0;98504;78;0,0116;0,0;2,1;260;3,8;-1,97;-0,36;123;0;nan;11,2;14,7;14,7;25,9;20,1;19,7;19,6;18,4;-9990,0;19,4;1734
2023-07-01 17:00:00;20,3;98530;70;0,0105;0,0;3,1;290;5,8;-2,85;1,06;119;0;nan;11,2;14,7;14,7;25,7;20,1;19,9;19,5;18,4;-9990,0;19,4;1734
2023-07-01 18:00:00;19,6;98597;70;0,01;0,0;3,0;302;4,5;-2,5;1,58;38;0;nan;11,2;14,7;14,7;25,6;19,9;20,0;19,7;18,4;-9990,0;19,5;1730
2023-07-01 19:00:00;18,7;98673;72;0,0098;0,0;2,1;288;3,6;-2,0;0,66;3;0;nan;11,2;14,7;14,7;25,6;19,6;20,0;19,7;18,4;-9990,0;19,5;1731
2023-07-01 20:00:00;17,9;98756;74;0,0097;0,0;2,4;294;3,7;-2,14;0,94;0;0;nan;11,2;14,7;14,7;25,6;19,2;19,8;19,7;18,4;-9990,0;19,4;1735
2023-07-01 21:00:00;16,9;98801;74;0,009;0,0;1,8;305;3,0;-1,47;1,03;0;0;nan;11,2;14,7;14,7;25,6;18,9;19,6;19,5;18,4;-9990,0;19,3;1736
2023-07-01 22:00:00;14,8;98876;85;0,0091;0,36;2,5;294;5,1;-2,15;0,94;0;0;nan;11,2;14,7;14,7;25,6;18,6;19,5;19,6;18,4;-9990,0;19,2;1739
2023-07-01 23:00:00;14,2;98859;89;0,0091;0,14;1,1;167;1,6;0,22;-0,94;0;0;nan;11,2;14,7;14,7;25,6;18,3;19,2;19,5;18,4;-9990,0;19,3;1736
2023-07-02 00:00:00;14,1;98844;89;0,009;0,0;1,0;205;1,4;-0,36;-0,79;0;0;nan;11,2;14,7;14,7;25,6;18,0;19,0;19,5;18,4;-9990,0;19,2;1738
2023-07-02 01:00:00;13,3;98840;86;0,0083;0,02;1,0;211;2,0;-0,52;-0,86;0;0;nan;11,2;14,7;14,7;25,7;17,7;18,8;19,5;18,4;-9990,0;19,3;1738
2023-07-02 02:00:00;13,4;98845;86;0,0084;0,0;0,8;138;1,2;0,35;-0,39;0;0;nan;11,2;14,7;14,7;25,8;17,4;18,6;19,3;18,4;-9990,0;19,4;1734
2023-07-02 03:00:00;13,4;98852;85;0,0082;0,0;1,0;245;1,5;-0,79;-0,37;6;0;nan;11,2;14,7;14,7;25,6;17,1;18,4;19,3;18,4;-9990,0;19,2;1740
2023-07-02 04:00:00;13,8;98890;85;0,0084;0,0;1,6;280;2,8;-1,48;0,26;36;0;nan;11,2;14,7;14,7;25,6;16,9;18,2;19,3;18,4;-9990,0;19,3;1737
2023-07-02 05:00:00;14,9;98949;82;0,0088;0,0;2,3;269;3,5;-2,26;-0,05;99;0;nan;11,2;14,7;14,7;25,6;16,8;18,1;19,3;18,4;-9990,0;19,1;1743
2023-07-02 06:00:00;16,3;98965;81;0,0094;0,0;2,8;272;5,1;-2,76;0,09;363;0;nan;11,2;14,7;14,7;25,6;17,0;18,0;19,1;18,4;-9990,0;18,9;1747
2023-07-02 07:00:00;17,2;99014;73;0,009;0,0;3,0;259;5,0;-2,94;-0,55;331;0;nan;11,2;14,7;14,7;25,6;17,4;18,0;19,1;18,3;-9990,0;18,9;1748
2023-07-02 08:00:00;18,4;99028;64;0,0085;0,0;2,9;280;4,8;-2,61;0,45;455;0;nan;11,3;14,7;14,7;25,6;18,0;18,2;19,0;18,3;-9990,0;18,8;1750
2023-07-02 09:00:00;18,8;99075;60;0,0082;0,0;3,2;279;5,2;-3,09;0,47;312;0;nan;11,3;14,7;14,7;25,6;18,7;18,5;19,0;18,3;-9990,0;18,8;1751
2023-07-02 10:00:00;18,8;99085;60;0,0082;0,0;3,0;289;4,9;-2,8;0,94;278;0;nan;11,3;14,7;14,7;25,5;19,1;18,8;19,0;18,3;-9990,0;18,7;1753
2023-07-02 11:00:00;19,8;99089;54;0,0079;0,0;3,6;290;5,9;-3,28;1,19;427;0;nan;11,4;14,7;14,7;25,5;19,4;19,0;18,9;18,3;-9990,0;19,3;1738
2023-07-02 12:00:00;20,2;99098;52;0,0077;0,0;3,2;275;5,3;-3,1;0,3;360;0;nan;11,4;14,7;14,7;25,5;19,7;19,2;19,0;18,3;-9990,0;18,9;1749
2023-07-02 13:00:00;20,8;99108;54;0,0083;0,0;3,6;308;7,2;-2,78;2,21;450;0;nan;11,4;14,7;14,7;25,5;20,0;19,4;19,0;18,3;-9990,0;19,3;1735
2023-07-02 14:00:00;21,5;99105;51;0,0082;0,0;3,4;300;4,8;-2,83;1,62;424;0;nan;11,4;14,8;14,7;25,5;20,4;19,6;19,0;18,3;-9990,0;19,4;1735
2023-07-02 15:00:00;21,9;99092;48;0,008;0,0;3,7;293;6,4;-3,42;1,43;414;0;nan;11,4;14,8;14,7;25,5;20,6;19,8;19,0;18,2;-9990,0;19,2;1738
2023-07-02 16:00:00;21,7;99067;48;0,0079;0,0;3,1;278;5,1;-3,03;0,43;256;0;nan;11,4;14,8;14,7;25,5;20,6;20,0;19,1;18,2;-9990,0;19,4;1734
2023-07-02 17:00:00;21,1;99050;50;0,0079;0,0;2,7;273;4,4;-2,68;0,12;122;0;nan;11,4;14,8;14,7;25,4;20,5;20,1;19,2;18,2;-9990,0;19,0;1745
2023-07-02 18:00:00;20,5;99043;53;0,008;0,0;1,9;268;3,8;-1,93;-0,08;66;0;nan;11,4;14,8;14,8;25,4;20,2;20,1;19,2;18,2;-9990,0;19,0;1746
2023-07-02 19:00:00;nan;nan;nan;nan;0,0;nan;nan;nan;nan;nan;nan;0;nan;11,4;14,8;14,8;25,4;19,8;19,9;19,3;18,2;-9990,0;18,9;1749
2023-07-02 20:00:00;18,2;99074;57;0,0075;0,0;1,8;237;2,8;-1,44;-0,95;0;0;nan;11,4;14,8;14,8;25,4;19,3;19,8;19,2;18,2;-9990,0;19,0;1745
2023-07-02 21:00:00;nan;nan;nan;nan;0,0;nan;nan;nan;nan;nan;nan;0;nan;11,4;14,8;14,8;25,4;18,7;19,5;19,2;18,2;-9990,0;18,6;1755
2023-07-02 22:00:00;16,4;99171;64;0,0075;0,0;2,7;301;4,3;-2,28;1,34;0;0;nan;11,4;14,8;14,8;25,4;18,4;19,3;19,3;18,2;-9990,0;18,7;1754
2023-07-02 23:00:00;14,8;99150;67;0,007;0,0;1,5;273;2,8;-1,33;0,08;0;0;nan;11,3;14,8;14,8;25,8;17,9;19,1;19,3;18,2;-9990,0;18,6;1755
2023-07-03 00:00:00;13,7;99137;68;0,0067;0,0;1,4;222;2,4;-0,85;-0,93;0;0;nan;11,3;14,8;14,8;25,4;17,5;18,7;19,2;18,2;-9990,0;18,6;1755
2023-07-03 01:00:00;12,4;99131;71;0,0064;0,0;1,2;221;1,7;-0,77;-0,87;0;0;nan;11,3;14,7;14,8;25,4;17,0;18,5;19,2;18,2;-9990,0;18,9;1749
2023-07-03 02:00:00;11,8;99115;72;0,0063;0,0;1,7;215;2,7;-0,98;-1,38;0;0;nan;11,3;14,7;14,8;25,4;16,5;18,2;19,1;18,2;-9990,0;18,7;1754
2023-07-03 03:00:00;12,3;99082;71;0,0064;0,0;2,5;223;3,4;-1,65;-1,79;8;0;nan;11,3;14,7;14,8;25,4;16,1;17,8;19,0;18,2;-9990,0;19,2;1740
2023-07-03 04:00:00;13,4;99078;71;0,0068;0,0;3,3;219;5,5;-2,06;-2,55;80;0;nan;11,3;14,7;14,8;25,4;15,8;17,5;19,0;18,2;-9990,0;18,8;1750
2023-07-03 05:00:00;14,0;99099;71;0,0071;0,0;2,7;215;3,9;-1,52;-2,17;78;0;nan;11,3;14,7;14,8;25,4;15,7;17,3;18,9;18,2;-9990,0;19,0;1745
2023-07-03 06:00:00;14,4;99128;71;0,0074;0,0;3,3;195;5,3;-0,86;-3,16;117;0;nan;11,3;14,7;14,8;25,4;15,8;17,2;18,8;18,2;-9990,0;18,7;1753
2023-07-03 07:00:00;15,4;99148;72;0,0079;0,0;3,0;195;4,7;-0,77;-2,93;168;0;nan;11,3;14,7;14,7;25,4;16,1;17,1;18,7;18,2;-9990,0;18,7;1753
2023-07-03 08:00:00;16,2;99163;72;0,0084;0,06;2,5;242;4,1;-2,04;-1,07;308;0;nan;11,3;14,7;14,7;25,4;16,4;17,2;18,5;18,1;-9990,0;18,8;1751
2023-07-03 09:00:00;18,7;99154;60;0,0081;0,0;3,4;254;6,1;-3,0;-0,87;462;0;nan;11,3;14,7;14,7;25,4;17,3;17,3;18,4;18,1;-9990,0;18,8;1749
2023-07-03 10:00:00;19,8;99158;48;0,0069;0,0;4,7;266;8,0;-4,2;-0,32;475;0;nan;11,4;14,7;14,7;25,4;18,6;17,7;18,3;18,1;-9990,0;18,9;1748
2023-07-03 11:00:00;19,9;99162;47;0,0069;0,0;4,4;264;7,6;-4,34;-0,42;431;1;1;11,4;14,7;14,7;25,4;19,2;18,2;18,3;18,1;-9990,0;18,3;1765
2023-07-03 12:00:00;20,6;99163;47;0,0071;0,0;4,3;251;6,8;-3,95;-1,34;559;0;nan;11,4;14,7;14,7;25,3;19,5;18,5;18,3;18,1;-9990,0;18,4;1762
2023-07-03 13:00:00;21,2;99162;46;0,0073;0,0;4,3;273;7,7;-4,07;0,18;476;0;nan;11,4;14,7;14,7;25,3;20,0;18,8;18,4;18,1;-9990,0;18,1;1772
2023-07-03 14:00:00;21,7;99121;48;0,0078;0,0;3,7;269;6,2;-3,64;-0,05;433;0;nan;11,4;14,7;14,7;25,3;20,2;19,1;18,5;18,1;-9990,0;18,0;1772
2023-07-03 15:00:00;22,2;99087;47;0,0079;0,0;4,0;247;6,9;-3,39;-1,45;335;0;nan;11,4;14,8;14,7;25,3;20,3;19,4;18,5;18,0;-9990,0;17,9;1775
2023-07-03 16:00:00;22,4;99060;47;0,008;0,0;3,7;269;6,5;-3,64;-0,09;317;0;nan;11,4;14,8;14,7;25,3;20,3;19,5;18,6;18,0;-9990,0;17,9;1775
2023-07-03 17:00:00;22,3;99044;48;0,0081;0,0;3,2;250;5,1;-2,89;-1,07;206;0;nan;11,4;14,8;14,7;25,3;20,2;19,7;18,7;18,0;-9990,0;18,4;1762
2023-07-03 18:00:00;21,2;99030;50;0,0079;0,0;2,6;262;3,5;-2,47;-0,37;84;0;nan;11,4;14,8;14,7;25,2;20,0;19,7;18,8;18,0;-9990,0;18,1;1770
2023-07-03 19:00:00;18,6;99053;57;0,0077;0,0;1,2;249;1,9;-1,15;-0,43;12;0;nan;11,4;14,8;14,8;25,2;19,5;19,7;18,9;18,0;-9990,0;18,2;1769
2023-07-03 20:00:00;16,5;99118;64;0,0076;0,0;1,4;240;2,1;-1,22;-0,71;0;0;nan;11,4;14,8;14,8;25,2;18,8;19,4;18,8;18,0;-9990,0;18,3;1765
2023-07-03 21:00:00;15,5;99161;67;0,0074;0,0;1,1;233;1,6;-0,85;-0,64;0;0;nan;11,3;14,8;14,8;25,3;18,2;19,1;18,8;18,0;-9990,0;18,6;1757
2023-07-03 22:00:00;15,1;99190;67;0,0073;0,0;1,1;240;1,9;-0,88;-0,52;0;0;nan;11,3;14,8;14,8;25,3;17,6;18,8;18,8;18,0;-9990,0;18,5;1760
2023-07-03 23:00:00;13,9;99207;70;0,007;0,0;1,1;213;1,4;-0,57;-0,88;0;0;nan;11,3;14,8;14,8;25,3;17,2;18,5;18,9;18,0;-9990,0;18,6;1757
2023-07-04 00:00:00;13,7;99236;70;0,007;0,0;0,9;258;1,4;-0,87;-0,18;0;0;nan;11,3;14,7;14,8;25,3;16,7;18,1;18,7;18,0;-9990,0;18,7;1754
2023-07-04 01:00:00;13,3;99245;74;0,0071;0,0;1,2;220;2,0;-0,69;-0,82;0;0;nan;11,3;14,7;14,8;25,5;16,3;17,8;18,8;18,0;-9990,0;18,5;1758
2023-07-04 02:00:00;12,7;99242;76;0,007;0,0;1,3;201;1,8;-0,45;-1,19;0;0;nan;11,3;14,7;14,8;25,5;16,0;17,6;18,7;18,0;-9990,0;18,7;1754
2023-07-04 03:00:00;12,4;99242;77;0,0069;0,0;1,4;188;2,0;-0,19;-1,38;6;0;nan;11,2;14,7;14,8;25,5;15,6;17,3;18,5;18,0;-9990,0;18,2;1766
2023-07-04 04:00:00;12,9;99250;78;0,0072;0,0;1,2;198;1,8;-0,36;-1,1;54;0;nan;11,2;14,7;14,7;25,4;15,4;17,1;18,5;18,0;-9990,0;18,2;1766
2023-07-04 05:00:00;14,5;99278;75;0,0077;0,0;2,1;218;3,2;-1,24;-1,6;170;1;5;11,2;14,7;14,7;25,4;15,4;16,9;18,5;18,0;-9990,0;18,0;1772
2023-07-04 06:00:00;16,3;99300;67;0,0078;0,0;2,5;219;4,1;-1,56;-1,95;323;0;nan;11,2;14,7;14,7;25,2;15,6;16,8;18,4;18,0;-9990,0;18,1;1771
2023-07-04 07:00:00;18,1;99324;59;0,0076;0,0;3,0;258;4,5;-2,8;-0,59;481;0;nan;11,3;14,7;14,7;25,2;16,1;16,8;18,3;17,9;-9990,0;18,0;1773
2023-07-04 08:00:00;19,5;99330;54;0,0077;0,0;3,4;288;5,3;-3,1;0,98;603;0;nan;11,3;14,7;14,7;25,2;17,0;17,0;18,2;17,9;-9990,0;18,0;1774
2023-07-04 09:00:00;20,2;99341;51;0,0076;0,0;3,0;240;4,8;-2,12;-1,22;512;1;5;11,3;14,7;14,7;25,1;18,3;17,4;18,1;17,9;-9990,0;18,0;1773
2023-07-04 10:00:00;21,8;99324;46;0,0076;0,0;3,6;272;5,8;-3,28;0,11;595;0;nan;11,3;14,7;14,7;25,1;19,4;17,9;18,0;17,9;-9990,0;17,6;1784
2023-07-04 11:00:00;22,0;99313;45;0,0074;0,0;3,0;246;4,6;-2,6;-1,15;463;0;nan;11,3;14,7;14,7;25,1;20,2;18,5;18,1;17,9;-9990,0;17,6;1785
2023-07-04 12:00:00;22,4;99300;44;0,0075;0,0;2,8;233;5,2;-2,01;-1,51;396;0;nan;11,4;14,7;14,7;25,1;20,6;18,9;18,2;17,9;-9990,0;17,6;1784
2023-07-04 13:00:00;23,3;99268;42;0,0076;0,0;2,6;247;3,7;-2,04;-0,87;465;0;nan;11,3;14,7;14,7;25,1;21,0;19,3;18,2;17,9;-9990,0;17,8;1779
2023-07-04 14:00:00;23,0;99249;42;0,0074;0,0;2,0;265;3,3;-1,94;-0,17;222;0;nan;11,3;14,8;14,7;25,1;21,2;19,6;18,3;17,8;-9990,0;17,7;1782
2023-07-04 15:00:00;23,1;99201;43;0,0076;0,0;2,4;255;3,7;-2,07;-0,56;204;0;nan;11,3;14,8;14,7;25,0;20,9;19,9;18,5;17,8;-9990,0;17,6;1785
2023-07-04 16:00:00;23,1;99145;45;0,008;0,0;1,7;313;2,8;-0,81;0,75;238;0;nan;11,3;14,8;14,7;25,0;20,8;20,0;18,6;17,8;-9990,0;17,6;1785
2023-07-04 17:00:00;22,1;99085;51;0,0085;0,0;0,8;63;1,8;0,65;0,33;89;0;nan;11,3;14,8;14,7;25,0;20,8;20,0;18,7;17,8;-9990,0;17,5;1788
2023-07-04 18:00:00;20,7;99040;58;0,0089;0,0;0,5;96;0,7;0,32;-0,04;21;0;nan;11,3;14,8;14,7;25,0;20,5;20,1;18,7;17,8;-9990,0;17,7;1782
2023-07-04 19:00:00;19,6;99008;65;0,0094;0,0;0,8;208;1,0;-0,31;-0,58;3;0;nan;11,2;14,8;14,7;25,0;20,1;20,0;18,9;17,8;-9990,0;17,8;1780
2023-07-04 20:00:00;nan;nan;nan;nan;0,0;nan;nan;nan;nan;nan;nan;0;nan;11,2;14,8;14,7;25,0;19,6;19,9;18,9;17,8;-9990,0;17,7;1781
2023-07-04 21:00:00;17,3;98942;78;0,0098;0,0;2,1;176;3,2;0,14;-2,11;0;0;nan;11,2;14,8;14,7;25,0;19,2;19,6;18,8;17,8;-9990,0;17,6;1785
2023-07-04 22:00:00;16,9;98892;80;0,0098;0,0;1,9;155;3,3;0,78;-1,68;0;0;nan;11,2;14,8;14,7;25,0;18,9;19,4;19,0;17,8;-9990,0;17,7;1783
2023-07-04 23:00:00;16,9;98804;82;0,01;0,0;2,6;165;4,0;0,66;-2,45;0;0;nan;11,2;14,8;14,8;25,0;18,6;19,3;19,0;17,8;-9990,0;17,4;1790
2023-07-05 00:00:00;17,2;98714;81;0,01;0,0;3,2;176;5,1;0,21;-3,22;0;0;nan;11,2;14,8;14,8;25,0;18,4;19,1;18,9;17,8;-9990,0;17,5;1789
2023-07-05 01:00:00;17,2;98643;82;0,0102;0,0;3,2;177;5,8;0,19;-3,21;0;0;nan;11,2;14,8;14,8;25,0;18,2;18,9;19,0;17,8;-9990,0;17,6;1785
2023-07-05 02:00:00;16,4;98598;89;0,0105;5,3;2,9;201;5,3;-0,77;-2,0;0;0;nan;11,2;14,8;14,8;25,0;18,0;18,8;18,9;17,8;-9990,0;17,5;1789
2023-07-05 03:00:00;14,3;98677;88;0,0091;0,0;2,5;215;3,7;-1,34;-1,91;2;0;nan;11,2;14,9;14,8;25,0;17,7;18,6;18,8;17,8;-9990,0;17,5;1789
2023-07-05 04:00:00;13,5;98766;86;0,0084;0,0;3,0;238;4,9;-2,48;-1,55;30;0;nan;11,2;14,9;14,7;25,0;17,4;18,4;18,9;17,8;-9990,0;17,6;1787
2023-07-05 05:00:00;14,0;98807;80;0,0081;0,0;3,3;224;5,5;-2,24;-2,31;179;0;nan;11,2;14,8;14,8;25,0;17,0;18,2;18,9;17,8;-9990,0;17,7;1782
2023-07-05 06:00:00;14,3;98880;70;0,0072;0,0;5,6;240;9,0;-4,79;-2,78;229;2;12;11,2;14,8;14,8;25,0;16,7;18,0;18,8;17,8;-9990,0;17,7;1782
2023-07-05 07:00:00;14,8;98938;69;0,0073;0,0;5,0;236;7,2;-4,05;-2,77;366;0;nan;11,2;14,8;14,8;25,0;16,7;17,8;18,8;17,8;-9990,0;17,6;1785
2023-07-05 08:00:00;16,2;98991;62;0,0072;0,0;5,2;246;7,8;-4,69;-2,1;556;0;nan;11,2;14,8;14,7;25,2;17,0;17,7;18,7;17,8;-9990,0;17,4;1790
2023-07-05 09:00:00;17,1;99080;57;0,0069;0,0;5,4;243;8,1;-4,68;-2,38;644;0;nan;11,2;14,8;14,7;25,3;17,6;17,8;18,6;17,8;-9990,0;17,5;1788
2023-07-05 10:00:00;18,0;99124;53;0,0069;0,0;5,9;251;9,4;-5,57;-1,94;690;0;nan;11,3;14,8;14,7;25,2;18,5;18,0;18,5;17,8;-9990,0;17,8;1780
2023-07-05 11:00:00;18,8;99170;50;0,0069;0,0;5,9;249;9,6;-5,48;-2,13;539;0;nan;11,3;14,8;14,7;25,1;19,5;18,3;18,5;17,8;-9990,0;17,9;1775
2023-07-05 12:00:00;19,7;99184;51;0,0073;0,0;6,1;239;8,9;-5,13;-3,1;587;2;6;11,4;14,8;14,7;24,9;20,2;18,7;18,4;17,8;-9990,0;18,0;1774
2023-07-05 13:00:00;18,9;99244;56;0,0077;0,0;5,6;252;8,4;-5,17;-1,68;470;0;nan;11,4;14,8;14,7;24,9;20,4;19,1;18,5;17,8;-9990,0;17,8;1781
2023-07-05 14:00:00;17,9;99301;66;0,0085;0,0;4,6;251;7,2;-4,19;-1,44;485;0;nan;11,4;14,8;14,7;24,9;20,2;19,4;18,5;17,8;-9990,0;17,8;1779
2023-07-05 15:00:00;17,8;99333;68;0,0087;0,0;4,9;248;7,9;-4,34;-1,78;371;0;nan;11,4;14,8;14,7;24,9;20,3;19,5;18,6;17,8;-9990,0;18,1;1772
2023-07-05 16:00:00;nan;nan;nan;nan;0,0;nan;nan;nan;nan;nan;nan;0;nan;11,4;14,8;14,8;24,9;20,0;19,6;18,7;17,8;-9990,0;18,0;1775
2023-07-05 17:00:00;17,4;99395;67;0,0084;0,0;4,3;256;6,3;-4,17;-1,02;97;0;nan;11,3;14,8;14,8;24,8;19,7;19,6;18,7;17,8;-9990,0;17,8;1780
2023-07-05 18:00:00;17,3;99411;67;0,0083;0,0;3,2;233;4,7;-2,45;-1,84;76;0;nan;11,3;14,8;14,8;24,8;19,3;19,5;18,8;17,8;-9990,0;17,7;1782
2023-07-05 19:00:00;16,4;99441;69;0,0081;0,0;2,7;227;4,0;-2,0;-1,84;9;0;nan;11,3;14,8;14,8;24,8;18,8;19,3;18,9;17,8;-9990,0;17,5;1787
2023-07-05 20:00:00;15,7;99491;70;0,0078;0,0;3,1;224;4,7;-2,1;-2,2;0;0;nan;11,3;14,8;14,8;24,8;18,3;19,1;18,8;17,8;-9990,0;17,5;1788
2023-07-05 21:00:00;14,6;99566;71;0,0074;0,0;1,9;296;3,4;-1,58;0,77;0;0;nan;11,3;14,8;14,8;24,8;17,8;18,8;18,7;17,8;-9990,0;17,5;1790
2023-07-05 22:00:00;12,7;99604;79;0,0073;0,0;1,0;216;1,3;-0,51;-0,7;0;0;nan;11,2;14,8;14,8;24,8;17,3;18,5;18,8;17,8;-9990,0;17,5;1788
2023-07-05 23:00:00;11,0;99634;85;0,007;0,0;0,6;134;0,7;0,39;-0,38;0;0;nan;11,2;14,8;14,8;24,8;16,7;18,2;18,7;17,8;-9990,0;17,4;1790
2023-07-06 00:00:00;10,1;99626;87;0,0067;0,0;0,8;175;1,2;0,06;-0,66;0;0;nan;11,2;14,8;14,8;24,8;16,1;17,8;18,6;17,8;-9990,0;17,2;1797
2023-07-06 01:00:00;12,0;99628;81;0,0071;0,0;1,9;210;2,7;-0,93;-1,6;0;0;nan;11,2;14,8;14,8;24,8;15,6;17,4;18,6;17,8;-9990,0;17,0;1803
2023-07-06 02:00:00;11,6;99631;81;0,0069;0,0;1,9;205;2,8;-0,77;-1,69;0;0;nan;11,2;14,8;14,8;24,8;15,3;17,1;18,5;17,8;-9990,0;16,9;1807
2023-07-06 03:00:00;11,3;99628;82;0,0068;0,0;1,2;182;1,6;-0,04;-1,02;10;0;nan;11,2;14,7;14,8;24,8;15,1;16,9;18,3;17,8;-9990,0;16,8;1809
2023-07-06 04:00:00;11,1;99632;84;0,0069;0,0;0,9;76;1,3;0,72;0,18;86;0;nan;11,1;14,7;14,8;24,8;14,8;16,6;18,3;17,8;-9990,0;16,9;1807
2023-07-06 05:00:00;14,1;99649;76;0,0076;0,0;1,1;256;1,8;-0,72;-0,18;217;0;nan;11,1;14,7;14,7;24,8;14,7;16,4;18,3;17,8;-9990,0;16,8;1809
2023-07-06 06:00:00;16,3;99676;63;0,0073;0,0;1,5;258;2,2;-1,22;-0,27;366;0;nan;11,2;14,7;14,7;24,8;14,8;16,3;18,2;17,8;-9990,0;16,8;1811
2023-07-06 07:00:00;18,0;99704;56;0,0072;0,0;2,0;282;3,1;-1,54;0,34;525;0;nan;11,2;14,7;14,7;24,8;15,5;16,3;18,1;17,8;-9990,0;17,0;1804
2023-07-06 08:00:00;19,1;99715;52;0,0072;0,0;2,2;264;4,0;-1,55;-0,15;632;0;nan;11,2;14,7;14,7;24,8;16,5;16,5;18,0;17,7;-9990,0;16,9;1806
2023-07-06 09:00:00;19,9;99737;48;0,0069;0,0;2,9;287;4,5;-2,24;0,68;554;0;nan;11,2;14,7;14,7;24,8;17,9;16,9;17,8;17,7;-9990,0;16,7;1812
2023-07-06 10:00:00;20,9;99732;46;0,007;0,0;2,8;262;4,8;-2,37;-0,35;715;0;nan;11,3;14,8;14,7;24,8;18,9;17,5;17,9;17,7;-9990,0;16,6;1818
2023-07-06 11:00:00;22,1;99740;43;0,0071;0,0;2,7;276;5,0;-1,99;0,21;666;0;nan;11,3;14,8;14,7;24,8;20,2;18,0;17,8;17,7;-9990,0;16,8;1810
2023-07-06 12:00:00;22,1;99731;42;0,007;0,0;3,0;281;5,2;-2,77;0,52;583;0;nan;11,4;14,8;14,7;24,7;21,0;18,7;17,9;17,7;-9990,0;16,5;1820
2023-07-06 13:00:00;22,5;99709;41;0,007;0,0;3,4;285;4,8;-2,49;0,67;636;0;nan;11,4;14,8;14,7;24,7;21,5;19,2;17,9;17,7;-9990,0;16,6;1817
2023-07-06 14:00:00;22,5;99700;42;0,0072;0,0;2,3;312;3,6;-1,63;1,48;426;0;nan;11,4;14,8;14,7;24,7;21,8;19,7;18,1;17,6;-9990,0;16,7;1815
2023-07-06 15:00:00;22,8;99690;42;0,0073;0,0;2,3;325;4,2;-1,33;1,87;405;0;nan;11,3;14,9;14,7;24,7;21,7;20,1;18,2;17,6;-9990,0;16,5;1819
2023-07-06 16:00:00;22,7;99672;43;0,0074;0,0;1,3;42;2,7;0,58;0,64;276;0;nan;11,3;14,9;14,7;24,6;21,5;20,3;18,3;17,6;-9990,0;16,4;1823
2023-07-06 17:00:00;22,7;99683;43;0,0074;0,0;1,5;53;2,3;1,01;0,75;195;0;nan;11,3;14,9;14,7;24,8;21,4;20,4;18,5;17,6;-9990,0;16,6;1816
2023-07-06 18:00:00;22,0;99720;46;0,0076;0,0;0,8;17;1,2;0,21;0,68;97;0;nan;11,3;14,9;14,7;24,7;21,2;20,5;18,6;17,6;-9990,0;16,6;1818
2023-07-06 19:00:00;18,2;99751;61;0,0079;0,0;1,0;216;1,3;-0,45;-0,62;12;0;nan;11,3;14,9;14,8;24,8;20,6;20,4;18,8;17,6;-9990,0;16,6;1817
2023-07-06 20:00:00;14,2;99804;74;0,0075;0,0;1,2;219;1,6;-0,7;-0,87;0;0;nan;11,2;14,9;14,8;24,9;19,9;20,2;18,9;17,6;-9990,0;16,4;1824
2023-07-06 21:00:00;12,8;99876;77;0,0071;0,0;1,3;206;1,5;-0,51;-1,05;0;0;nan;11,2;14,8;14,8;24,9;19,2;19,9;18,9;17,6;-9990,0;16,4;1822
2023-07-06 22:00:00;11,5;99906;83;0,007;0,0;0,6;159;0,9;0,2;-0,52;0;0;nan;11,2;14,8;14,8;24,9;18,5;19,5;19,1;17,6;-9990,0;16,6;1817
2023-07-06 23:00:00;10,9;99914;85;0,0069;0,0;0,6;155;0,9;0,24;-0,51;0;0;nan;11,1;14,8;14,8;24,6;17,9;19,1;19,0;17,6;-9990,0;16,6;1817
2023-07-07 00:00:00;10,4;99896;86;0,0068;0,0;0,9;160;1,0;0,3;-0,85;0;0;nan;11,1;14,8;14,8;24,6;17,3;18,7;19,0;17,6;-9990,0;16,7;1815
2023-07-07 01:00:00;9,7;99890;88;0,0066;0,0;0,7;173;0,9;0,08;-0,59;0;0;nan;11,1;14,8;14,8;24,6;16,8;18,3;19,0;17,6;-9990,0;16,5;1820
2023-07-07 02:00:00;9,1;99887;89;0,0064;0,0;0,6;153;0,7;0,24;-0,48;0;0;nan;11,1;14,8;14,8;24,6;16,3;17,9;18,8;17,6;-9990,0;16,6;1816
2023-07-07 03:00:00;8,6;99890;91;0,0063;0,0;0,4;156;0,6;0,09;-0,21;12;0;nan;11,0;14,8;14,8;24,6;15,9;17,6;18,7;17,7;-9990,0;16,9;1807
2023-07-07 04:00:00;9,9;99893;92;0,007;0,0;0,4;160;0,7;0,11;-0,3;96;0;nan;11,0;14,7;14,8;24,6;15,5;17,2;18,6;17,7;-9990,0;17,1;1802
2023-07-07 05:00:00;13,7;99900;86;0,0085;0,0;1,5;127;2,1;1,15;-0,88;229;0;nan;11,0;14,7;14,8;24,6;15,5;17,0;18,5;17,7;-9990,0;17,4;1791
2023-07-07 06:00:00;17,2;99905;72;0,0089;0,0;2,2;135;3,4;1,54;-1,52;366;0;nan;11,0;14,7;14,7;24,6;15,8;16,8;18,4;17,7;-9990,0;17,4;1791
2023-07-07 07:00:00;20,1;99920;59;0,0087;0,0;3,1;134;4,9;2,25;-2,16;506;0;nan;11,1;14,7;14,7;24,6;16,4;17,1;18,3;17,7;-9990,0;17,2;1797
2023-07-07 08:00:00;23,2;99937;52;0,0091;0,0;3,0;149;4,4;1,52;-2,54;628;0;nan;11,1;14,7;14,7;24,6;17,4;17,3;18,2;17,7;-9990,0;17,9;1776
2023-07-07 09:00:00;24,8;99927;43;0,0083;0,0;3,0;118;4,4;2,62;-1,41;734;0;nan;11,1;14,7;14,7;24,6;18,9;17,7;18,1;17,7;-9990,0;18,0;1772
2023-07-07 10:00:00;25,9;99906;37;0,0078;0,0;3,8;117;6,3;3,38;-1,73;786;0;nan;11,1;14,7;14,7;24,5;20,5;18,4;18,1;17,7;-9990,0;18,2;1767
2023-07-07 11:00:00;26,6;99863;33;0,0073;0,0;3,9;121;6,0;3,35;-1,99;787;0;nan;11,2;14,7;14,7;24,5;22,1;19,2;18,1;17,7;-9990,0;17,7;1782
2023-07-07 12:00:00;27,7;99830;33;0,0076;0,0;3,4;120;5,0;2,95;-1,72;706;0;nan;11,2;14,7;14,7;24,5;23,4;20,0;18,1;17,6;-9990,0;17,9;1776
2023-07-07 13:00:00;28,4;99767;31;0,0074;0,0;2,9;115;5,0;2,46;-1,14;704;0;nan;11,2;14,8;14,7;24,5;24,4;20,8;18,2;17,6;-9990,0;17,7;1783
2023-07-07 14:00:00;29,0;99738;30;0,0074;0,0;2,9;119;5,0;2,48;-1,37;617;0;nan;11,2;14,8;14,7;24,5;24,7;21,4;18,4;17,6;-9990,0;17,5;1787
2023-07-07 15:00:00;29,4;99702;27;0,0069;0,0;3,2;127;5,0;2,49;-1,89;464;0;nan;11,1;14,8;14,7;24,4;24,7;21,9;18,6;17,6;-9990,0;17,3;1795
2023-07-07 16:00:00;29,2;99656;26;0,0067;0,0;3,0;120;4,2;2,54;-1,49;276;0;nan;11,1;14,8;14,7;24,4;24,5;22,3;18,8;17,6;-9990,0;17,2;1799
2023-07-07 17:00:00;28,2;99632;28;0,0067;0,0;2,6;126;4,0;2,09;-1,53;139;0;nan;11,1;14,8;14,7;24,4;24,1;22,4;19,1;17,6;-9990,0;16,6;1816
2023-07-07 18:00:00;26,1;99641;33;0,007;0,0;1,3;168;1,6;0,26;-1,25;65;0;nan;11,0;14,8;14,7;24,4;23,4;22,3;19,3;17,6;-9990,0;16,5;1820
2023-07-07 19:00:00;22,4;99635;47;0,0079;0,0;1,4;199;1,6;-0,45;-1,28;5;0;nan;11,0;14,8;14,7;24,4;22,7;22,2;19,5;17,6;-9990,0;16,5;1820
2023-07-07 20:00:00;19,7;99647;55;0,0079;0,0;1,1;194;1,3;-0,24;-0,95;0;0;nan;10,9;14,8;14,7;24,5;21,9;21,9;19,6;17,6;-9990,0;17,0;1805
2023-07-07 21:00:00;17,0;99670;68;0,0083;0,0;0,5;152;0,6;0,21;-0,4;0;0;nan;10,9;14,7;14,7;24,6;21,1;21,5;19,7;17,6;-9990,0;17,0;1803
2023-07-07 22:00:00;15,7;99682;73;0,0082;0,0;0,5;153;0,6;0,21;-0,43;0;0;nan;10,9;14,7;14,7;24,6;20,4;21,1;19,7;17,7;-9990,0;16,8;1811
2023-07-07 23:00:00;14,8;99670;75;0,0079;0,0;0,3;165;0,5;0,05;-0,19;0;0;nan;10,8;14,7;14,7;24,5;19,8;20,6;19,8;17,7;-9990,0;16,8;1811
2023-07-08 00:00:00;14,5;99636;76;0,0078;0,0;1,0;194;1,4;-0,22;-0,92;0;0;nan;10,8;14,7;14,7;24,4;19,3;20,2;19,7;17,7;-9990,0;16,7;1814
2023-07-08 01:00:00;13,6;99600;80;0,0078;0,0;0,8;153;0,9;0,34;-0,67;0;0;nan;10,8;14,7;14,7;24,4;18,8;19,9;19,7;17,7;-9990,0;16,7;1814
2023-07-08 02:00:00;14,0;99550;76;0,0076;0,0;1,2;121;1,7;1,06;-0,63;0;0;nan;10,8;14,7;14,7;24,4;18,4;19,5;19,6;17,7;-9990,0;16,6;1815